SO-67 - Orbit

View from above orbital plane
View from above orbital plane
View from above satellite
View from above satellite

Ground track
Ground track

The orbit data is extracted from the following two-line orbital elements,

1 35870U 09049F   13142.42104752  .00007994  00000-0  30489-3 0   808
2 35870 097.1933 172.0893 0003621 070.1828 036.4691 15.26924583204320
Epoch (UTC): 22 May 2013 10:06:18
Eccentricity: 0.0003621
inclination: 97.1933°
perigee height: 482 km
apogee height: 487 km
right ascension of ascending node: 172.0893°
argument of perigee: 70.1828°
revolutions per day: 15.26924583
mean anomaly at epoch: 36.4691°
orbit number at epoch: 20432

The dashed part of the orbit path shows where the satellite is in the earth's shadow,  

Developed and maintained by Chris Peat, Heavens-Above GmbH. Please read the updated FAQ before sending e-mail. Imprint. DLR